Погода в Хельсингборге

Швеция     56°02′54″N   12°41′50″E
темп.,
°C
ветер,
м/с
пор.,
м/с
влажн.,
%
обл.,
%
осадки,
мм/ч
давл.,
гПа
погр.,
м
22 июня, вт
вт2223:00+15сз688520 0.0 1008353
02:00+15сз578166 0.0 1009427
05:00+13зсз468729 0.0 1010269
08:00+15з4577100 0.0 1011492
11:00+17зсз4566100 0.0 1012738
14:00+18зсз446293 0.0 1013804
17:00+18сз55645 0.0 1013543
20:00+16сз45720 0.0 1014414
23 июня, ср
ср2323:00+14зсз34830 0.0 1015157
02:00+14зсз46895 0.0 1015214
05:00+14зсз469273 0.0 1015318
08:00+16зсз458290 0.1 1016629
11:00+17сз558162 0.1 1017626
14:00+18сз667861 0.1 1018619
17:00+18сз567796 0.0 1018551
20:00+17сз5681100 0.0 1019429
24 июня, чт
чт2423:00+15сз4884100 0.0 1019250
02:00+15ссз4884100 0.0 1019276
05:00+15сз4688100 0.0 1019245
08:00+15зсз456526 0.0 1020395
11:00+17сз44545 0.0 1020520
14:00+18сз55525 0.0 1020510
17:00+18сз45565 0.0 1019416
20:00+17ссз347381 0.0 1018237
25 июня, пт
пт2523:00+14сз1281100 0.0 101882
02:00+14ссз46888 0.0 1017199
05:00+14сз24885 0.0 1017160
08:00+16сз56780 0.0 1017567
11:00+17ссз567029 0.0 1017664
14:00+18ссз666827 0.0 1016630
17:00+18сз677187 0.0 1016526
20:00+17сз6108162 0.0 1015498
26 июня, сб
сб2623:00+16сз61189100 0.0 1015439
02:00+16ссз61089100 0.0 1015457
05:00+15сз6993100 0.0 1015422
08:00+16сз6784100 0.0 1016591
11:00+18сз67776 0.0 1015634
14:00+19сз78731 0.0 1016552
17:00+19сз67720 0.0 1015395
20:00+19сз46770 0.0 1015232